CST,Max TemperatureF,Mean TemperatureF,Min TemperatureF,Max Dew PointF,MeanDew PointF,Min DewpointF,Max Humidity, Mean Humidity, Min Humidity, Max Sea Level PressureIn, Mean Sea Level PressureIn, Min Sea Level PressureIn, Max VisibilityMiles, Mean VisibilityMiles, Min VisibilityMiles, Max Wind SpeedMPH, Mean Wind SpeedMPH, Max Gust SpeedMPH,PrecipitationIn, CloudCover, Events, WindDirDegrees
2013-1-1,22,12,2,17,9,-1,88,82,76,30.27,30.13,30.01,10,10,2,14,6,16,0.00,6,,210
2013-1-2,33,21,8,25,18,3,88,78,67,30.34,30.07,29.90,10,10,9,24,13,35,T,7,Snow,312
2013-1-3,25,17,8,17,10,1,84,76,68,30.37,30.27,30.13,10,10,10,16,9,20,0.00,4,,229
2013-1-4,24,12,0,14,4,-3,91,79,67,30.20,30.14,30.07,10,10,10,13,5,15,0.00,0,,184
2013-1-5,23,10,-3,16,6,-6,87,77,67,30.25,30.10,29.96,10,9,3,30,10,36,T,3,Snow,289
2013-1-6,22,8,-7,17,4,-12,95,83,71,30.28,30.12,29.87,10,10,10,20,7,23,0.00,0,,184
2013-1-7,35,23,10,25,18,8,92,76,59,29.98,29.94,29.87,10,10,10,15,8,18,0.00,3,,213
2013-1-8,38,27,15,28,22,12,88,79,69,29.99,29.83,29.73,10,10,10,28,12,35,0.00,4,,214
2013-1-9,34,24,13,27,20,10,92,78,63,30.27,30.16,30.01,10,10,10,24,12,31,0.00,0,,198
2013-1-10,38,35,32,32,28,25,89,77,64,30.03,29.77,29.49,10,9,2,32,23,41,0.00,3,,170
2013-1-11,34,22,9,32,19,3,96,86,76,29.68,29.50,29.39,6,2,0,105,14,146,0.02,8,Fog-Rain-Snow,165
2013-1-12,9,5,0,3,-1,-7,83,76,68,30.27,29.96,29.66,10,5,1,24,16,30,0.03,7,Snow,331
2013-1-13,13,5,-4,3,-3,-9,80,71,61,30.35,30.27,30.20,10,10,10,12,6,15,0.00,4,,298
2013-1-14,9,-2,-13,3,-4,-15,87,83,78,30.45,30.33,30.21,10,8,2,14,6,16,T,5,Snow,199
2013-1-15,35,19,2,30,9,-4,87,77,66,30.26,29.99,29.66,10,9,2,20,13,25,0.02,6,Snow,191
2013-1-16,38,23,7,31,18,0,82,72,61,30.32,29.98,29.70,10,10,10,25,10,31,0.00,6,,331
2013-1-17,28,19,9,24,13,1,84,75,66,30.47,30.32,30.07,10,10,10,13,6,16,0.00,7,,136
2013-1-18,42,32,21,30,25,18,88,73,57,30.03,29.85,29.76,10,10,8,15,8,20,0.00,1,,202
2013-1-19,37,19,1,29,11,-8,92,75,58,30.45,30.11,29.75,10,10,10,45,17,52,0.00,3,,308
2013-1-20,10,2,-7,0,-5,-17,79,68,56,30.53,30.44,30.33,10,7,2,26,13,32,0.03,6,Snow,308
2013-1-21,5,-3,-11,-6,-13,-19,72,64,56,30.53,30.46,30.40,10,10,10,22,10,26,0.00,0,,295
2013-1-22,12,3,-6,5,0,-10,82,70,58,30.41,30.30,30.14,10,9,2,13,6,15,0.01,6,Snow,180
2013-1-23,11,3,-5,5,-4,-14,91,74,56,30.69,30.47,30.22,10,10,10,21,12,29,0.00,1,,4
2013-1-24,12,3,-7,3,-6,-17,73,66,58,30.69,30.36,30.11,10,10,10,28,15,35,0.00,2,,157
2013-1-25,23,12,0,15,0,-7,84,70,55,30.35,30.23,30.00,10,10,9,23,10,31,0.00,3,,5
2013-1-26,24,12,-1,15,5,-7,88,75,61,30.32,30.13,29.98,10,10,10,17,8,21,0.00,0,,149
2013-1-27,36,24,12,29,21,8,92,81,69,29.96,29.81,29.71,10,7,0,9,5,10,0.00,3,Fog,10
2013-1-28,30,27,24,28,24,21,100,92,84,29.88,29.79,29.71,7,2,0,12,5,14,0.65,8,Fog-Snow,305
2013-1-29,29,24,19,27,18,14,96,87,77,30.00,29.82,29.69,10,8,2,21,11,28,0.02,7,Snow,351
2013-1-30,20,5,-11,16,-3,-19,84,74,64,30.07,29.97,29.88,10,6,1,23,16,31,T,7,Snow,326
2013-1-31,-6,-17,-29,-17,-21,-32,82,70,57,30.47,30.29,30.04,10,7,2,29,15,35,T,4,Snow,314